FW3157 Weather Reports


Display with metric or nautical units.
time (UTC)temp
F
wind
direction
speed
MPH
gust
MPH
rain 1hr
in
rain 24hr
in
rain mn
in
humidity
%
barometer
mb
20220706080814 85 288 10.0 19.0 0.00 0.00 0.00 49 1011.6
20220706080313 85 25 10.0 19.0 0.00 0.00 0.00 49 1011.7
20220706075812 85 335 9.0 16.0 0.00 0.00 0.00 49 1011.6
20220706075312 85 307 9.0 15.0 0.00 0.00 0.00 49 1011.7
20220706074813 85 328 7.0 14.0 0.00 0.00 0.00 47 1011.6
20220706074311 85 315 5.0 12.0 0.00 0.00 0.00 48 1011.7
20220706073811 84 314 7.0 13.0 0.00 0.00 0.00 49 1011.6
20220706073311 84 349 6.0 13.0 0.00 0.00 0.00 50 1011.6
20220706072811 84 41 5.0 10.0 0.00 0.00 0.00 51 1011.6
20220706072310 83 352 7.0 14.0 0.00 0.00 0.00 51 1011.7
20220706071810 83 295 7.0 14.0 0.00 0.00 0.00 52 1011.6
20220706071311 83 27 7.0 15.0 0.00 0.00 0.00 53 1011.8
20220706070810 83 313 7.0 15.0 0.00 0.00 0.00 53 1011.8
20220706070310 83 319 7.0 13.0 0.00 0.00 0.00 53 1011.8
20220706065811 82 53 7.0 14.0 0.00 0.00 0.00 53 1011.7
20220706065310 82 5 7.0 14.0 0.00 0.00 0.00 53 1011.9
20220706064811 82 321 7.0 13.0 0.00 0.00 0.00 54 1011.9
20220706064311 82 313 6.0 13.0 0.00 0.00 0.00 54 1011.9
20220706063810 82 46 6.0 12.0 0.00 0.00 0.00 55 1011.9
20220706063310 81 335 7.0 13.0 0.00 0.00 0.00 54 1011.9
20220706062811 81 34 8.0 15.0 0.00 0.00 0.00 54 1011.8
20220706062312 81 328 8.0 15.0 0.00 0.00 0.00 54 1011.9
20220706061810 81 6 7.0 13.0 0.00 0.00 0.00 54 1011.9
20220706061310 81 321 7.0 13.0 0.00 0.00 0.00 54 1012.0
20220706060810 81 342 7.0 13.0 0.00 0.00 0.00 54 1012.0
20220706060310 81 319 7.0 14.0 0.00 0.00 0.00 55 1012.0
20220706055810 81 315 6.0 14.0 0.00 0.00 0.00 55 1012.0
20220706055311 81 308 6.0 14.0 0.00 0.00 0.00 56 1011.9
20220706054810 80 8 6.0 14.0 0.00 0.00 0.00 57 1011.8
20220706054310 79 356 6.0 10.0 0.00 0.00 0.00 62 1011.8
20220706053810 79 297 6.0 11.0 0.00 0.00 0.00 64 1011.8
20220706053311 79 316 7.0 11.0 0.00 0.00 0.00 65 1011.8
20220706052810 78 309 6.0 11.0 0.00 0.00 0.00 66 1011.8
20220706052310 78 334 5.0 11.0 0.00 0.00 0.00 66 1011.8
20220706051810 78 305 6.0 12.0 0.00 0.00 0.00 66 1011.7
20220706051310 78 314 6.0 12.0 0.00 0.00 0.00 66 1011.7
20220706050813 78 326 5.0 10.0 0.00 0.00 0.00 65 1011.6
20220706050310 78 297 5.0 10.0 0.00 0.00 0.00 68 1011.7
20220706045810 78 304 5.0 10.0 0.00 0.00 0.00 68 1011.7
20220706045311 77 326 4.0 9.0 0.00 0.00 0.00 71 1011.7
20220706044811 77 278 4.0 9.0 0.00 0.00 0.00 72 1011.7
20220706044310 77 297 4.0 7.0 0.00 0.00 0.00 71 1011.7
20220706043809 77 303 4.0 7.0 0.00 0.00 0.00 71 1011.7
20220706043308 77 331 4.0 8.0 0.00 0.00 0.00 69 1011.6
20220706042808 77 310 5.0 8.0 0.00 0.00 0.00 70 1011.6
20220706042307 77 330 4.0 7.0 0.00 0.00 0.00 70 1011.6
20220706041808 77 306 4.0 7.0 0.00 0.00 0.00 70 1011.5
20220706041311 77 296 5.0 9.0 0.00 0.00 0.00 71 1011.6
20220706040808 76 314 6.0 9.0 0.00 0.00 0.00 71 1011.5
20220706040309 76 347 6.0 9.0 0.00 0.00 0.00 73 1011.5
20220706035809 76 267 5.0 11.0 0.00 0.00 0.00 74 1011.6
20220706035308 75 330 6.0 11.0 0.00 0.00 0.00 74 1011.6
20220706034809 75 316 6.0 10.0 0.00 0.00 0.00 73 1011.6
20220706034310 75 139 5.0 9.0 0.00 0.00 0.00 72 1011.5
20220706033808 75 282 5.0 10.0 0.00 0.00 0.00 72 1011.6
20220706033309 75 295 5.0 11.0 0.00 0.00 0.00 73 1011.5
20220706032808 75 278 5.0 11.0 0.00 0.00 0.00 74 1011.5
20220706032308 76 284 6.0 10.0 0.00 0.00 0.00 73 1011.4
20220706031808 76 281 7.0 12.0 0.00 0.00 0.00 73 1011.5
20220706031309 76 292 7.0 12.0 0.00 0.00 0.00 72 1011.5
20220706030809 76 300 6.0 11.0 0.00 0.00 0.00 70 1011.4
20220706030311 77 307 5.0 9.0 0.00 0.00 0.00 70 1011.4
20220706025811 78 301 5.0 10.0 0.00 0.00 0.00 69 1011.4
20220706025309 78 252 5.0 10.0 0.00 0.00 0.00 67 1011.4
20220706024810 79 270 4.0 10.0 0.00 0.00 0.00 64 1011.4
20220706024311 80 286 2.0 7.0 0.00 0.00 0.00 56 1011.5
20220706023807 80 305 3.0 6.0 0.00 0.00 0.00 56 1011.3
20220706023308 80 324 3.0 6.0 0.00 0.00 0.00 55 1011.3
20220706022808 80 307 4.0 6.0 0.00 0.00 0.00 56 1011.4
20220706022308 80 307 4.0 6.0 0.00 0.00 0.00 55 1011.3
20220706021806 80 314 4.0 6.0 0.00 0.00 0.00 55 1011.3
20220706021306 80 321 3.0 6.0 0.00 0.00 0.00 55 1011.3
20220706020806 80 15 3.0 8.0 0.00 0.00 0.00 56 1011.4
20220706020306 80 315 4.0 8.0 0.00 0.00 0.00 57 1011.4
20220706015806 79 349 4.0 8.0 0.00 0.00 0.00 58 1011.4
20220706015311 79 14 4.0 10.0 0.00 0.00 0.00 58 1011.4
20220706014806 79 337 4.0 10.0 0.00 0.00 0.00 58 1011.5
20220706014305 79 356 4.0 10.0 0.00 0.00 0.00 58 1011.5
20220706013806 79 300 4.0 9.0 0.00 0.00 0.00 57 1011.5
20220706013305 79 351 4.0 9.0 0.00 0.00 0.00 56 1011.5
20220706012804 79 56 4.0 8.0 0.00 0.00 0.00 56 1011.5
20220706012304 79 330 3.0 6.0 0.00 0.00 0.00 56 1011.6
20220706011804 79 316 5.0 10.0 0.00 0.00 0.00 56 1011.6
20220706011305 79 352 6.0 11.0 0.00 0.00 0.00 56 1011.7
20220706010804 79 314 5.0 11.0 0.00 0.00 0.00 56 1011.8
20220706010304 79 43 3.0 6.0 0.00 0.00 0.00 58 1011.8
20220706005804 78 46 4.0 6.0 0.00 0.00 0.00 59 1012.0
20220706005303 78 323 5.0 9.0 0.00 0.00 0.00 60 1012.1
20220706004802 78 316 4.0 9.0 0.00 0.00 0.00 59 1012.2
20220706004302 79 329 4.0 8.0 0.00 0.00 0.00 59 1012.2
20220706003802 79 324 5.0 8.0 0.00 0.00 0.00 60 1012.3
20220706003303 79 277 4.0 9.0 0.00 0.00 0.00 58 1012.3
20220706002802 78 310 4.0 9.0 0.00 0.00 0.00 58 1012.3
20220706002302 78 26 6.0 12.0 0.00 0.00 0.00 58 1012.1
20220706001802 78 43 7.0 12.0 0.00 0.00 0.00 59 1012.0
20220706001302 78 48 8.0 15.0 0.00 0.00 0.00 60 1012.1
20220706000801 78 311 10.0 21.0 0.00 0.00 0.00 61 1012.2
20220706000302 78 321 13.0 25.0 0.00 0.00 0.00 62 1012.2
20220705235800 78 324 14.0 25.0 0.00 0.00 0.00 64 1012.2
20220705235300 79 291 8.0 23.0 0.00 0.00 0.00 60 1012.2
20220705234758 82 280 3.0 20.0 0.00 0.00 0.00 52 1012.1
20220705234257 82 36 2.0 6.0 0.00 0.00 0.00 50 1011.3
20220705233758 82 28 3.0 6.0 0.00 0.00 0.00 49 1011.2
20220705233256 82 105 3.0 6.0 0.00 0.00 0.00 49 1011.0
20220705232756 82 100 2.0 6.0 0.00 0.00 0.00 50 1011.3
20220705232256 82 93 2.0 5.0 0.00 0.00 0.00 50 1011.5
20220705231800 82 43 3.0 6.0 0.00 0.00 0.00 51 1011.6
20220705231254 82 33 4.0 6.0 0.00 0.00 0.00 51 1011.9
20220705230754 82 36 3.0 5.0 0.00 0.00 0.00 52 1012.1
20220705230254 82 39 2.0 5.0 0.00 0.00 0.00 52 1012.2
20220705225753 82 63 2.0 7.0 0.00 0.00 0.00 52 1012.4
20220705225253 82 25 3.0 7.0 0.00 0.00 0.00 52 1012.7
20220705224754 82 301 5.0 11.0 0.00 0.00 0.00 53 1013.1
20220705224252 82 290 6.0 11.0 0.00 0.00 0.00 51 1013.3
20220705223751 82 325 4.0 9.0 0.00 0.00 0.00 52 1013.5
20220705223253 82 335 3.0 6.0 0.00 0.00 0.00 53 1013.5
20220705222753 82 311 3.0 6.0 0.00 0.00 0.00 52 1013.5
20220705222250 82 311 4.0 8.0 0.00 0.00 0.00 52 1013.6
20220705221749 82 20 5.0 10.0 0.00 0.00 0.00 53 1013.6
20220705221250 82 303 6.0 10.0 0.00 0.00 0.00 52 1013.7
20220705220749 82 319 7.0 13.0 0.00 0.00 0.00 52 1013.8
20220705220251 82 326 9.0 15.0 0.00 0.00 0.00 53 1013.8
20220705215750 83 331 8.0 15.0 0.00 0.00 0.00 52 1013.8
20220705215249 83 310 8.0 16.0 0.00 0.00 0.00 53 1013.7
20220705214750 83 328 9.0 16.0 0.00 0.00 0.00 52 1013.6
20220705214249 83 306 7.0 13.0 0.00 0.00 0.00 53 1013.5
20220705213749 83 324 7.0 12.0 0.00 0.00 0.00 50 1013.4
20220705213247 83 328 8.0 14.0 0.00 0.00 0.00 50 1013.3
20220705212748 83 316 7.0 14.0 0.00 0.00 0.00 51 1013.3
20220705212247 83 5 5.0 10.0 0.00 0.00 0.00 51 1013.2
20220705211747 83 314 3.0 10.0 0.00 0.00 0.00 50 1013.1
20220705211248 83 326 2.0 4.0 0.00 0.00 0.00 49 1012.9
20220705210800 83 2 1.0 3.0 0.00 0.00 0.00 50 1012.7
20220705210754 83 12 1.0 3.0 0.00 0.00 0.00 50 1012.7
20220705210748 83 26 1.0 3.0 0.00 0.00 0.00 50 1012.7
20220705205258 83 39 1.0 2.0 0.00 0.00 0.00 50 1012.5
20220705205249 83 29 1.0 2.0 0.00 0.00 0.00 50 1012.6
20220705204248 83 91 1.0 3.0 0.00 0.00 0.00 50 1012.3
20220705203748 83 94 1.0 3.0 0.00 0.00 0.00 50 1012.2
20220705203247 83 83 1.0 3.0 0.00 0.00 0.00 51 1012.1
20220705202747 83 89 1.0 3.0 0.00 0.00 0.00 50 1012.1
20220705202246 83 92 1.0 2.0 0.00 0.00 0.00 51 1012.1
20220705201747 83 61 2.0 4.0 0.00 0.00 0.00 50 1012.2
20220705201246 83 78 2.0 4.0 0.00 0.00 0.00 50 1012.1
20220705200747 83 105 2.0 7.0 0.00 0.00 0.00 50 1012.1
20220705200246 83 121 4.0 8.0 0.00 0.00 0.00 49 1012.0
20220705195745 83 162 4.0 8.0 0.00 0.00 0.00 48 1011.9
20220705195244 83 106 4.0 7.0 0.00 0.00 0.00 47 1012.0
20220705194744 83 202 3.0 6.0 0.00 0.00 0.00 47 1012.1
20220705194241 84 98 3.0 6.0 0.00 0.00 0.00 47 1012.0
20220705193741 84 105 4.0 7.0 0.00 0.00 0.00 47 1012.0
20220705193242 84 90 3.0 7.0 0.00 0.00 0.00 47 1011.9
20220705192742 84 110 3.0 7.0 0.00 0.00 0.00 48 1011.9
20220705192242 84 88 3.0 7.0 0.00 0.00 0.00 48 1012.0
20220705191741 84 136 3.0 8.0 0.00 0.00 0.00 49 1012.0
20220705191241 84 158 3.0 8.0 0.00 0.00 0.00 49 1012.0
20220705190742 84 150 2.0 5.0 0.00 0.00 0.00 49 1011.9
20220705190242 85 120 2.0 6.0 0.00 0.00 0.00 48 1011.9
20220705185743 85 168 2.0 6.0 0.00 0.00 0.00 48 1011.8
20220705185242 85 162 2.0 6.0 0.00 0.00 0.00 48 1011.7
20220705184741 85 237 3.0 6.0 0.00 0.00 0.00 48 1011.7
20220705184241 85 158 3.0 6.0 0.00 0.00 0.00 48 1011.6
20220705183743 85 157 3.0 7.0 0.00 0.00 0.00 48 1011.5
20220705183242 85 170 2.0 7.0 0.00 0.00 0.00 48 1011.4
20220705182741 85 145 2.0 5.0 0.00 0.00 0.00 48 1011.4
20220705182241 85 159 2.0 5.0 0.00 0.00 0.00 48 1011.5
20220705181742 86 160 1.0 4.0 0.00 0.00 0.00 48 1011.5
20220705181241 86 219 1.0 4.0 0.00 0.00 0.00 47 1011.4
20220705180741 86 159 2.0 6.0 0.00 0.00 0.00 46 1011.3
20220705180241 86 162 2.0 6.0 0.00 0.00 0.00 46 1011.3
20220705175741 86 188 2.0 6.0 0.00 0.00 0.00 46 1011.3
20220705175241 87 143 2.0 6.0 0.00 0.00 0.00 47 1011.4
20220705174741 87 252 3.0 6.0 0.00 0.00 0.00 45 1011.4
20220705174242 87 127 2.0 6.0 0.00 0.00 0.00 45 1011.4
20220705173742 87 146 2.0 5.0 0.00 0.00 0.00 45 1011.4
20220705173242 87 231 3.0 7.0 0.00 0.00 0.00 45 1011.3
20220705172742 87 169 4.0 9.0 0.00 0.00 0.00 45 1011.3
20220705172241 88 169 3.0 9.0 0.00 0.00 0.00 44 1011.3
20220705171742 88 136 2.0 7.0 0.00 0.00 0.00 44 1011.2
20220705171241 89 155 2.0 6.0 0.00 0.00 0.00 45 1011.2
20220705170746 89 169 3.0 8.0 0.00 0.00 0.00 44 1011.1
20220705170241 90 208 4.0 8.0 0.00 0.00 0.00 43 1011.2
20220705165740 90 219 4.0 9.0 0.00 0.00 0.00 43 1011.2
20220705165240 90 175 4.0 9.0 0.00 0.00 0.00 42 1011.1
20220705164740 90 166 4.0 9.0 0.00 0.00 0.00 42 1011.1
20220705164239 91 189 3.0 9.0 0.00 0.00 0.00 42 1011.2
20220705163740 91 235 3.0 9.0 0.00 0.00 0.00 42 1011.1
20220705163239 91 215 4.0 10.0 0.00 0.00 0.00 41 1011.2
20220705162739 91 208 4.0 10.0 0.00 0.00 0.00 40 1011.1
20220705162239 91 156 3.0 7.0 0.00 0.00 0.00 40 1011.0
20220705161746 91 236 3.0 6.0 0.00 0.00 0.00 42 1011.0
20220705161239 91 155 3.0 6.0 0.00 0.00 0.00 40 1011.1
20220705160739 91 214 3.0 8.0 0.00 0.00 0.00 41 1011.1
20220705160239 91 229 5.0 11.0 0.00 0.00 0.00 40 1011.1
20220705155740 90 269 6.0 12.0 0.00 0.00 0.00 40 1011.1
20220705155237 91 244 6.0 14.0 0.00 0.00 0.00 38 1011.2
20220705154737 91 186 6.0 14.0 0.00 0.00 0.00 40 1011.2
20220705154237 91 156 6.0 12.0 0.00 0.00 0.00 40 1011.2
20220705153735 91 176 5.0 12.0 0.00 0.00 0.00 40 1011.3
20220705153235 91 187 5.0 11.0 0.00 0.00 0.00 40 1011.3
20220705152734 91 88 6.0 11.0 0.00 0.00 0.00 42 1011.3
20220705152233 91 252 5.0 10.0 0.00 0.00 0.00 40 1011.3
20220705151733 92 226 5.0 10.0 0.00 0.00 0.00 42 1011.4
20220705151232 92 281 4.0 9.0 0.00 0.00 0.00 40 1011.4
20220705150733 92 255 4.0 11.0 0.00 0.00 0.00 41 1011.5
20220705150235 92 217 4.0 11.0 0.00 0.00 0.00 39 1011.5
20220705145736 92 239 4.0 10.0 0.00 0.00 0.00 41 1011.4
20220705145232 92 252 3.0 9.0 0.00 0.00 0.00 40 1011.4
20220705144733 92 76 5.0 9.0 0.00 0.00 0.00 40 1011.5
20220705144232 92 171 6.0 9.0 0.00 0.00 0.00 39 1011.5
20220705143730 92 240 5.0 9.0 0.00 0.00 0.00 38 1011.5
20220705143231 92 219 4.0 9.0 0.00 0.00 0.00 38 1011.5
20220705142730 92 231 4.0 9.0 0.00 0.00 0.00 37 1011.6
20220705142230 92 209 4.0 9.0 0.00 0.00 0.00 38 1011.7
20220705141731 92 198 4.0 9.0 0.00 0.00 0.00 40 1011.7
20220705141232 92 190 4.0 10.0 0.00 0.00 0.00 40 1011.7
20220705140731 92 219 5.0 10.0 0.00 0.00 0.00 41 1011.8
20220705140230 91 236 5.0 11.0 0.00 0.00 0.00 41 1011.9
20220705135731 91 217 5.0 11.0 0.00 0.00 0.00 40 1012.0
20220705135232 92 224 5.0 11.0 0.00 0.00 0.00 40 1012.0
20220705134729 91 158 5.0 11.0 0.00 0.00 0.00 41 1012.1
20220705134232 91 164 4.0 10.0 0.00 0.00 0.00 41 1012.1
20220705133729 91 225 4.0 9.0 0.00 0.00 0.00 44 1012.2
20220705133229 91 219 5.0 9.0 0.00 0.00 0.00 44 1012.2
20220705132729 91 218 4.0 9.0 0.00 0.00 0.00 43 1012.3
20220705132228 91 197 4.0 11.0 0.00 0.00 0.00 43 1012.4
20220705131729 90 288 5.0 11.0 0.00 0.00 0.00 44 1012.5
20220705131230 89 261 7.0 11.0 0.00 0.00 0.00 44 1012.5
20220705130728 89 231 7.0 11.0 0.00 0.00 0.00 45 1012.6
20220705130228 89 212 5.0 11.0 0.00 0.00 0.00 45 1012.7
20220705125727 90 221 5.0 12.0 0.00 0.00 0.00 46 1012.6
20220705125227 89 208 6.0 12.0 0.00 0.00 0.00 46 1012.7
20220705124731 89 243 5.0 11.0 0.00 0.00 0.00 47 1012.7
20220705124227 89 290 5.0 11.0 0.00 0.00 0.00 47 1012.7
20220705123726 89 240 5.0 13.0 0.00 0.00 0.00 46 1012.7
20220705123227 89 232 5.0 13.0 0.00 0.00 0.00 45 1012.8
20220705122728 89 198 6.0 11.0 0.00 0.00 0.00 46 1012.7
20220705122226 89 231 6.0 11.0 0.00 0.00 0.00 45 1012.7
20220705121727 88 226 6.0 11.0 0.00 0.00 0.00 47 1012.7
20220705121227 89 224 6.0 11.0 0.00 0.00 0.00 47 1012.8
20220705120725 88 186 6.0 11.0 0.00 0.00 0.00 46 1012.8
20220705120222 89 196 5.0 11.0 0.00 0.00 0.00 45 1013.0
20220705115723 89 264 4.0 11.0 0.00 0.00 0.00 46 1013.0
20220705115223 88 234 4.0 10.0 0.00 0.00 0.00 44 1013.1
20220705114722 88 257 4.0 11.0 0.00 0.00 0.00 47 1013.2
20220705114223 88 226 5.0 11.0 0.00 0.00 0.00 45 1013.3
20220705113722 88 255 5.0 11.0 0.00 0.00 0.00 46 1013.3
20220705113222 87 249 5.0 11.0 0.00 0.00 0.00 49 1013.4
20220705112722 87 286 4.0 11.0 0.00 0.00 0.00 48 1013.5
20220705112223 87 259 5.0 12.0 0.00 0.00 0.00 50 1013.5
20220705111720 87 278 7.0 13.0 0.00 0.00 0.00 51 1013.5
20220705111220 87 208 5.0 13.0 0.00 0.00 0.00 51 1013.5
20220705110723 86 129 5.0 12.0 0.00 0.00 0.00 52 1013.5
20220705110222 86 218 6.0 11.0 0.00 0.00 0.00 52 1013.5
20220705105721 86 261 6.0 13.0 0.00 0.00 0.00 53 1013.6
20220705105220 86 240 5.0 13.0 0.00 0.00 0.00 54 1013.6
20220705104720 87 203 4.0 10.0 0.00 0.00 0.00 52 1013.6
20220705104220 86 266 5.0 10.0 0.00 0.00 0.00 51 1013.7
20220705103720 87 239 5.0 10.0 0.00 0.00 0.00 49 1013.6
20220705103220 87 274 4.0 9.0 0.00 0.00 0.00 41 1013.6
20220705102719 87 224 3.0 8.0 0.00 0.00 0.00 41 1013.7
20220705102218 86 231 4.0 10.0 0.00 0.00 0.00 43 1013.7
20220705101719 85 295 4.0 10.0 0.00 0.00 0.00 44 1013.8
20220705101218 85 229 4.0 8.0 0.00 0.00 0.00 43 1013.8
20220705100718 86 277 4.0 8.0 0.00 0.00 0.00 47 1013.9
20220705100218 86 288 4.0 9.0 0.00 0.00 0.00 44 1013.9
20220705095718 85 241 4.0 9.0 0.00 0.00 0.00 46 1014.0
20220705095218 84 255 5.0 8.0 0.00 0.00 0.00 49 1014.0
20220705094718 84 268 5.0 8.0 0.00 0.00 0.00 47 1014.1
20220705094219 84 256 4.0 8.0 0.00 0.00 0.00 50 1014.1
20220705093718 84 258 4.0 8.0 0.00 0.00 0.00 52 1014.1
20220705093219 84 286 5.0 8.0 0.00 0.00 0.00 53 1014.2
20220705092718 83 281 5.0 8.0 0.00 0.00 0.00 53 1014.2
20220705092219 83 203 5.0 8.0 0.00 0.00 0.00 54 1014.3
20220705091718 83 218 4.0 8.0 0.00 0.00 0.00 56 1014.4
20220705091218 83 280 5.0 7.0 0.00 0.00 0.00 58 1014.5
20220705090720 83 282 5.0 7.0 0.00 0.00 0.00 59 1014.5
20220705090216 83 265 4.0 7.0 0.00 0.00 0.00 56 1014.5
20220705085717 83 297 3.0 8.0 0.00 0.00 0.00 57 1014.4
20220705085215 83 268 3.0 8.0 0.00 0.00 0.00 56 1014.4
20220705084714 83 247 4.0 6.0 0.00 0.00 0.00 58 1014.5
20220705084214 82 295 4.0 6.0 0.00 0.00 0.00 58 1014.6
20220705083712 82 274 4.0 7.0 0.00 0.00 0.00 57 1014.6
20220705083214 82 268 4.0 7.0 0.00 0.00 0.00 61 1014.6
20220705082712 81 274 4.0 10.0 0.00 0.00 0.00 63 1014.6
20220705082212 81 259 5.0 10.0 0.00 0.00 0.00 65 1014.6
20220705081711 81 270 4.0 7.0 0.00 0.00 0.00 65 1014.6
20220705081211 81 300 4.0 9.0 0.00 0.00 0.00 66 1014.6